GSAT0213 (GALILEO 17)

Last updated on Fri Oct 11 2024 00:02:28 GMT+0000 (Coordinated Universal Time)

1 41861U 16069C 24284.22891713 .00000063 00000+0 00000+0 0 9992 2 41861 55.1422 118.1290 0001721 278.5923 81.4611 1.70474643 49033
UTC large
Height (km)
Speed (km/s)
/
Latitude / Longitude
Inclination (degrees)
Orbital Period (minutes)
Azimuth
Elevation
Range (km)
Doppler Factor

Next 0 passes for location: London (51.5072 / 0.1276)

Sorry there are no passes over London.